Weather History for Chehalis, WA

Change the Weather History Date:

Sunday, January 19, 2014

  Actual Average (KOLM) Record (KOLM)
Temperature  
Mean Temperature 38 °F 40 °F  
Max Temperature 41 °F 46 °F 64 °F (2005)
Min Temperature 35 °F 34 °F 15 °F (1984)
Degree Days  
Heating Degree Days 27 25  
Month to date heating degree days 485  
Since 1 July heating degree days 2755  
Cooling Degree Days 0 0  
Month to date cooling degree days 0  
Year to date cooling degree days 0  
Moisture  
Dew Point 38 °F    
Average Humidity 97    
Maximum Humidity 100    
Minimum Humidity 93    
Precipitation  
Precipitation 0.00 in 0.27 in 2.47 in (1967)
Month to date precipitation 4.97  
Year to date precipitation 4.97  
Sea Level Pressure  
Sea Level Pressure 30.24 in    
Wind  
Wind Speed 2 mph (NNE)    
Max Wind Speed 9 mph    
Max Gust Speed -    
Visibility 5 miles    
Events Fog    
T = Trace of Precipitation, MM = Missing Value Source: NWS Daily Summary

Daily Weather History Graph

Daily Weather History Graph

Search for Another Location

Airport:

Trip Planner

Search our weather history database for the weather conditions in past years. The results will help you decide how hot, cold, wet, or windy it might be!

Date:

Astronomy

Jan. 19, 2014 Rise Set
Actual Time 7:49 AM PST 4:56 PM PST
Civil Twilight 7:15 AM PST 5:30 PM PST
Nautical Twilight 6:38 AM PST 6:07 PM PST
Astronomical Twilight 6:02 AM PST 6:43 PM PST
Moon 8:56 PM PST 9:07 AM PST
Length of Visible Light 10h 14m
Length of Day
9h 07m
Waning Gibbous, 89% of the Moon is Illuminated
Jan 19
Waning Gibbous
Jan 23
Last Quarter
Jan 30
New
Feb 6
First Quarter
Feb 14
Full

Hourly Weather History & Observations

Time (PST) Temp. Windchill Dew Point Humidity Pressure Visibility Wind Dir Wind Speed Gust Speed Precip Events Conditions
12:15 AM 37.4 °F 34.9 °F 37.4 °F 100% 30.18 in 0.2 mi South 3.5 mph - N/A Fog Fog
12:35 AM 37.4 °F - 37.4 °F 100% 30.18 in 0.2 mi Calm Calm - N/A Fog Fog
12:55 AM 37.4 °F - 37.4 °F 100% 30.18 in 0.2 mi Calm Calm - N/A Fog Fog
1:15 AM 37.4 °F - 37.4 °F 100% 30.18 in 0.2 mi Calm Calm - N/A Fog Fog
1:35 AM 37.4 °F - 37.4 °F 100% 30.18 in 0.2 mi Calm Calm - N/A Fog Fog
1:55 AM 37.4 °F - 37.4 °F 100% 30.18 in 0.2 mi Calm Calm - N/A Fog Fog
2:15 AM 37.4 °F - 37.4 °F 100% 30.19 in 0.2 mi Calm Calm - N/A Fog Fog
2:35 AM 37.4 °F - 37.4 °F 100% 30.20 in 0.2 mi Calm Calm - N/A Fog Fog
2:55 AM 37.4 °F 34.9 °F 37.4 °F 100% 30.20 in 0.5 mi SSW 3.5 mph - N/A Fog Fog
3:15 AM 37.4 °F 34.9 °F 37.4 °F 100% 30.19 in 0.5 mi South 3.5 mph - N/A Fog Fog
3:35 AM 37.4 °F - 37.4 °F 100% 30.19 in 1.2 mi Calm Calm - N/A   Overcast
3:55 AM 37.4 °F - 37.4 °F 100% 30.20 in 1.0 mi Calm Calm - N/A   Overcast
4:15 AM 37.4 °F - 37.4 °F 100% 30.20 in 3.0 mi Calm Calm - N/A   Overcast
4:35 AM 37.4 °F - 37.4 °F 100% 30.21 in 3.0 mi Calm Calm - N/A   Overcast
4:55 AM 37.4 °F 33.8 °F 37.4 °F 100% 30.21 in 0.5 mi North 4.6 mph - N/A Fog Fog
5:15 AM 37.4 °F 33.8 °F 37.4 °F 100% 30.21 in 3.0 mi North 4.6 mph - N/A   Overcast
5:35 AM 35.6 °F - 35.6 °F 100% 30.21 in 1.0 mi Calm Calm - N/A   Overcast
5:55 AM 35.6 °F - 35.6 °F 100% 30.20 in 0.5 mi Calm Calm - N/A Fog Fog
6:15 AM 37.4 °F - 37.4 °F 100% 30.21 in 0.8 mi Calm Calm - N/A   Overcast
6:35 AM 37.4 °F - 37.4 °F 100% 30.21 in 0.5 mi Calm Calm - N/A Fog Fog
6:55 AM 37.4 °F - 37.4 °F 100% 30.21 in 0.5 mi Calm Calm - N/A Fog Fog
7:15 AM 37.4 °F - 37.4 °F 100% 30.21 in 0.5 mi Calm Calm - N/A Fog Fog
7:35 AM 37.4 °F - 37.4 °F 100% 30.21 in 0.5 mi Calm Calm - N/A Fog Fog
7:55 AM 37.4 °F - 37.4 °F 100% 30.20 in 0.2 mi Calm Calm - N/A Fog Fog
8:15 AM 37.4 °F - 37.4 °F 100% 30.22 in 0.2 mi Calm Calm - N/A Fog Fog
8:35 AM 37.4 °F - 37.4 °F 100% 30.22 in 0.2 mi Calm Calm - N/A Fog Fog
8:55 AM 37.4 °F - 37.4 °F 100% 30.22 in 0.2 mi Calm Calm - N/A Fog Fog
9:15 AM 37.4 °F - 37.4 °F 100% 30.21 in 0.5 mi Calm Calm - N/A Fog Fog
9:35 AM 37.4 °F 34.9 °F 37.4 °F 100% 30.22 in 5.0 mi SE 3.5 mph - N/A   Overcast
9:55 AM 37.4 °F 33.8 °F 37.4 °F 100% 30.22 in 3.0 mi SE 4.6 mph - N/A   Overcast
10:15 AM 37.4 °F 33.8 °F 37.4 °F 100% 30.24 in 5.0 mi SSE 4.6 mph - N/A   Overcast
10:35 AM 37.4 °F 33.8 °F 37.4 °F 100% 30.24 in 5.0 mi SE 4.6 mph - N/A   Overcast
10:55 AM 37.4 °F - 37.4 °F 100% 30.24 in 5.0 mi Calm Calm - N/A   Overcast
11:15 AM 37.4 °F - 37.4 °F 100% 30.24 in 5.0 mi Calm Calm - N/A   Overcast
11:35 AM 39.2 °F 37.0 °F 37.4 °F 93% 30.25 in 4.0 mi NE 3.5 mph - N/A   Overcast
11:55 AM 39.2 °F - 37.4 °F 93% 30.24 in 5.0 mi Calm Calm - N/A   Overcast
12:15 PM 39.2 °F - 37.4 °F 93% 30.24 in 5.0 mi Calm Calm - N/A   Overcast
12:35 PM 39.2 °F - 37.4 °F 93% 30.24 in 5.0 mi Calm Calm - N/A   Overcast
12:55 PM 39.2 °F 37.0 °F 37.4 °F 93% 30.25 in 4.0 mi NE 3.5 mph - N/A   Overcast
1:15 PM 39.2 °F 37.0 °F 37.4 °F 93% 30.25 in 5.0 mi NNW 3.5 mph - N/A   Overcast
1:35 PM 39.2 °F - 39.2 °F 100% 30.25 in 5.0 mi Calm Calm - N/A   Overcast
1:55 PM 39.2 °F - 39.2 °F 100% 30.24 in 9.0 mi Calm Calm - N/A   Overcast
2:15 PM 41.0 °F - 39.2 °F 93% 30.24 in 7.0 mi Calm Calm - N/A   Overcast
2:35 PM 41.0 °F - 39.2 °F 93% 30.24 in 8.0 mi Calm Calm - N/A   Overcast
2:55 PM 41.0 °F - 39.2 °F 93% 30.25 in 9.0 mi Calm Calm - N/A   Overcast
3:15 PM 41.0 °F 39.0 °F 39.2 °F 93% 30.25 in 9.0 mi North 3.5 mph - N/A   Overcast
3:35 PM 41.0 °F 36.4 °F 39.2 °F 93% 30.26 in 8.0 mi North 6.9 mph - N/A   Overcast
3:55 PM 41.0 °F 35.2 °F 39.2 °F 93% 30.26 in 6.0 mi North 9.2 mph - N/A   Overcast
4:15 PM 41.0 °F 36.4 °F 39.2 °F 93% 30.25 in 9.0 mi North 6.9 mph - N/A   Overcast
4:55 PM 41.0 °F 38.0 °F 39.2 °F 93% 30.26 in 9.0 mi North 4.6 mph - N/A   Overcast
5:15 PM 41.0 °F 35.8 °F 39.2 °F 93% 30.26 in 10.0 mi North 8.1 mph - N/A   Overcast
5:35 PM 39.2 °F 33.0 °F 37.4 °F 93% 30.27 in 9.0 mi NNE 9.2 mph - N/A   Overcast
5:55 PM 39.2 °F 33.6 °F 39.2 °F 100% 30.27 in 10.0 mi NNE 8.1 mph - N/A   Overcast
6:15 PM 39.2 °F 35.0 °F 39.2 °F 100% 30.27 in 8.0 mi NNE 5.8 mph - N/A   Overcast
6:35 PM 39.2 °F 35.9 °F 39.2 °F 100% 30.27 in 10.0 mi NNE 4.6 mph - N/A   Overcast
6:55 PM 39.2 °F 35.0 °F 39.2 °F 100% 30.28 in 10.0 mi NE 5.8 mph - N/A   Overcast
7:15 PM 39.2 °F 34.2 °F 39.2 °F 100% 30.28 in 9.0 mi NNE 6.9 mph - N/A   Overcast
7:35 PM 39.2 °F 33.6 °F 39.2 °F 100% 30.29 in 10.0 mi NE 8.1 mph - N/A   Overcast
7:55 PM 39.2 °F 35.0 °F 39.2 °F 100% 30.30 in 9.0 mi NE 5.8 mph - N/A   Overcast
8:15 PM 39.2 °F 34.2 °F 39.2 °F 100% 30.29 in 9.0 mi NNE 6.9 mph - N/A   Overcast
8:35 PM 39.2 °F 33.0 °F 39.2 °F 100% 30.30 in 9.0 mi NNE 9.2 mph - N/A   Overcast
8:55 PM 39.2 °F 33.6 °F 37.4 °F 93% 30.31 in 9.0 mi NNE 8.1 mph - N/A   Overcast
9:15 PM 39.2 °F 33.6 °F 37.4 °F 93% 30.31 in 8.0 mi NE 8.1 mph - N/A   Overcast
9:35 PM 39.2 °F 35.0 °F 37.4 °F 93% 30.31 in 9.0 mi NE 5.8 mph - N/A   Overcast
9:55 PM 39.2 °F 35.0 °F 37.4 °F 93% 30.31 in 10.0 mi NNE 5.8 mph - N/A   Overcast
10:15 PM 39.2 °F 34.2 °F 37.4 °F 93% 30.30 in 10.0 mi NNE 6.9 mph - N/A   Overcast
10:35 PM 39.2 °F 35.9 °F 37.4 °F 93% 30.31 in 10.0 mi NNE 4.6 mph - N/A   Overcast
10:55 PM 39.2 °F 37.0 °F 37.4 °F 93% 30.30 in 8.0 mi NNE 3.5 mph - N/A   Overcast
11:15 PM 39.2 °F 35.0 °F 37.4 °F 93% 30.31 in 9.0 mi NNE 5.8 mph - N/A   Overcast
11:35 PM 39.2 °F 35.9 °F 37.4 °F 93% 30.31 in 8.0 mi North 4.6 mph - N/A   Overcast
11:55 PM 39.2 °F 35.9 °F 37.4 °F 93% 30.31 in 7.0 mi North 4.6 mph - N/A   Overcast